Presure
264 343 333 334 335 330 353 344 284 272 251 259 254 273 182 245 210 157 161 173 216 213 195 179 189 186 181 169 171 177 182 175 167 173 167 184 173 179 173 140 180 125 104 178 138
352 350 324 318 333 324 341 342 340 298 265 251 264 252 241 217 200 160 220 198 170 215 208 201 191 184 185 182 175 169 168 179 184 179 178 141 141 167 174 174 106 163 177 177 174
310 308 315 305 312 316 320 337 339 345 271 252 255 248 248 239 213 232 202 191 221 217 220 193 198 193 188 186 181 176 172 169 188 172 175 164 174 178 150 169 173 172 171 170 173
321 312 291 310 311 306 309 310 328 325 295 264 260 253 243 249 229 170 209 186 161 175 225 210 201 190 196 185 181 177 176 180 186 188 186 174 176 174 179 177 98 153 168 172 166
339 343 337 346 183 307 298 304 309 325 324 274 262 248 250 256 242 245 211 214 198 176 210 222 219 214 214 210 191 177 182 186 170 187 180 180 176 174 183 171 169 161 172 161 176
337 317 298 287 293 334 128 297 303 299 331 297 278 261 253 239 228 243 238 231 182 205 231 183 213 214 207 208 213 200 180 188 179 172 195 182 187 172 174 172 171 175 176 180 180
481 470 459 466 555 309 286 304 296 299 295 325 296 264 248 252 239 246 233 245 231 221 197 234 176 213 167 205 193 205 193 190 185 193 174 179 188 71 182 180 163 164 163 168 169
575 559 552 556 456 406 308 300 294 287 295 313 310 294 251 248 236 237 226 235 234 239 220 201 193 207 212 202 207 196 204 194 186 187 190 188 180 187 190 185 183 176 173 177 177
544 513 491 482 468 446 361 291 285 290 288 290 318 313 266 260 243 238 229 228 223 236 241 212 234 167 195 196 210 203 203 204 207 197 188 188 139 187 190 188 187 195 178 178 193
487 468 472 522 444 437 433 324 279 282 282 290 292 309 312 253 250 242 234 235 234 221 242 230 230 241 200 230 173 213 210 203 203 201 203 203 198 199 199 195 204 210 208 203 203
448 444 450 461 506 510 547 425 276 277 272 281 282 301 294 311 266 244 229 233 236 235 237 246 232 236 225 214 217 225 199 212 209 207 208 203 209 205 206 204 204 206 211 210 203
455 431 419 445 479 528 530 512 346 272 277 278 282 278 302 296 284 266 243 233 239 223 226 230 233 226 243 247 209 238 223 234 224 213 213 207 206 204 204 201 202 205 204 197 202
429 430 432 436 464 510 567 498 426 272 278 267 271 261 311 288 292 276 249 237 249 243 232 224 233 232 220 224 234 242 229 228 228 226 213 206 206 205 202 203 204 198 203 206 206
428 429 440 423 413 512 526 475 399 271 262 270 262 264 318 291 286 294 261 261 230 256 233 229 230 232 229 226 227 239 237 233 248 243 240 231 218 209 206 205 204 204 207 211 224
443 428 434 423 431 482 481 451 371 274 266 259 261 271 257 301 273 274 281 284 243 272 243 236 226 233 234 226 226 230 241 237 254 256 262 239 244 223 223 215 215 219 218 219 218
449 448 465 435 437 539 461 406 321 270 264 263 259 258 262 274 297 267 264 270 277 253 253 246 247 242 235 230 234 233 230 236 242 245 258 245 254 230 211 223 183 185 226 217 218
459 468 487 468 517 447 409 368 336 278 260 254 239 241 257 262 289 278 264 258 255 258 258 265 263 263 233 232 230 234 244 250 249 253 275 296 287 255 142 144 157 151 219 170 224
469 511 524 542 388 377 385 345 310 260 257 251 242 244 243 258 262 266 277 268 259 258 251 254 251 242 252 249 248 247 252 260 264 295 269 262 238 95 215 237 76 221 223 225 226
508 540 522 438 374 347 330 324 295 264 250 245 240 247 245 250 251 253 299 297 294 254 262 265 258 258 258 261 265 279 292 274 255 250 246 236 235 235 232 239 237 239 217 150 214
475 311 401 370 349 338 333 324 287 260 248 245 237 238 240 249 273 281 277 276 279 288 296 272 262 274 281 277 269 259 249 233 240 237 236 234 232 224 233 122 96 238 186 248 195
394 370 364 343 348 354 336 340 282 258 245 235 228 232 253 278 274 268 270 268 265 267 269 266 262 259 261 252 248 244 239 233 231 230 228 227 218 223 221 224 230 222 286 319 333
376 382 280 349 349 357 336 334 291 260 251 243 229 246 258 282 269 266 255 250 249 245 242 243 243 249 240 236 232 230 224 219 217 214 218 222 250 248 248 254 311 94 284 281 81
389 375 361 368 348 345 314 291 268 263 245 233 244 273 271 255 247 251 246 240 233 231 229 231 233 226 225 229 223 216 214 219 238 234 239 230 241 246 231 312 271 276 298 256 140
369 386 317 267 288 283 272 260 250 243 243 242 263 270 256 247 244 239 235 233 232 230 229 226 223 219 236 246 237 236 236 230 230 222 231 222 238 230 241 277 271 302 307 244 375
323 303 290 282 279 250 226 225 248 246 258 277 277 255 245 243 240 235 235 236 235 231 225 256 251 247 239 235 231 232 232 225 228 231 231 225 238 237 258 269 289 294 302 371 410
397 293 264 264 235 243 220 237 242 251 283 281 248 246 241 241 239 238 235 227 274 263 260 247 236 231 224 221 224 219 241 229 235 227 223 220 237 230 247 245 284 287 284 316 357
289 377 293 273 255 242 237 239 241 250 279 253 243 240 236 232 232 229 286 266 259 246 235 228 212 210 217 241 234 235 212 226 228 218 208 227 228 218 134 260 273 285 267 224 297
Wind_Speed
33 41 42 37 37 37 43 50 85 88 80 85 84 85 69 86 80 62 66 67 96 97 100 85 96 95 89 79 78 76 75 80 86 86 83 82 75 73 74 61 78 59 44 70 64
41 37 42 44 39 40 38 45 58 95 88 84 89 88 87 82 78 69 87 77 69 94 99 100 93 89 92 92 82 75 74 82 87 87 86 58 67 74 75 81 53 78 78 75 72
54 43 40 43 47 43 43 40 48 56 89 85 87 85 85 86 80 89 80 79 85 93 95 92 98 98 96 94 88 84 80 82 88 84 84 80 78 77 78 80 81 79 76 75 75
60 55 53 44 48 50 47 47 46 53 83 93 94 89 84 85 83 75 84 80 68 69 86 97 102 91 100 91 88 83 84 86 91 88 85 85 83 80 79 80 33 76 77 77 76
62 59 55 47 30 54 54 51 52 52 59 99 96 88 90 85 84 85 86 87 83 76 88 88 88 94 89 93 97 85 85 92 81 89 86 88 87 82 82 82 83 77 80 77 83
60 58 63 68 52 57 29 57 56 59 53 72 104 98 93 84 83 84 85 87 79 85 89 79 89 89 91 90 84 96 87 95 94 84 92 92 92 80 83 84 82 83 84 85 83
62 61 56 54 38 58 56 63 58 57 59 58 100 101 86 93 85 85 85 84 87 87 84 91 75 90 65 90 88 91 95 97 93 96 79 82 90 18 91 86 78 80 80 83 83
33 32 32 29 43 62 61 64 62 60 59 54 66 91 94 89 88 87 86 85 84 84 89 81 79 86 88 86 89 92 91 95 95 91 96 91 88 94 91 88 88 89 88 89 91
31 31 29 28 32 43 72 65 62 62 61 63 58 63 99 99 93 88 87 84 86 83 85 84 87 62 80 82 89 89 91 92 94 97 92 92 63 94 90 90 91 94 88 89 96
25 25 23 23 26 33 42 72 65 65 64 62 60 62 55 94 99 92 86 86 84 83 78 80 82 78 81 86 71 93 91 89 91 92 90 90 91 96 96 94 93 89 92 92 86
31 29 25 20 21 15 16 44 70 69 66 59 51 48 65 64 99 93 84 86 84 80 75 75 75 74 83 83 86 84 85 92 94 90 90 89 85 88 91 89 88 86 87 83 81
38 33 27 23 28 20 16 36 75 68 65 57 54 50 58 65 87 97 92 84 85 80 77 73 75 78 73 72 82 79 87 90 94 90 88 89 88 89 90 87 88 89 88 84 83
41 36 31 23 24 23 6 39 64 69 65 57 50 56 55 62 67 88 94 83 87 84 78 77 76 75 75 73 73 74 77 82 87 91 91 89 87 86 86 89 90 88 89 89 86
42 34 27 11 5 24 15 45 66 68 60 56 53 53 46 54 56 56 84 86 76 81 81 78 77 74 74 75 74 71 70 76 78 86 89 90 87 91 92 91 92 95 94 94 92
37 32 24 8 5 5 31 55 69 68 61 52 51 47 46 49 53 51 48 62 75 75 77 81 75 76 77 72 70 69 71 71 69 72 76 83 83 82 90 93 96 96 94 93 91
36 33 26 6 10 9 46 60 51 60 58 50 45 38 36 31 49 52 49 50 51 68 72 78 77 78 74 70 69 68 66 67 66 67 69 76 73 65 81 90 68 69 91 93 94
35 33 18 6 6 44 52 60 63 67 50 46 39 39 36 33 31 46 53 55 55 55 60 61 67 66 69 69 67 66 72 68 62 65 68 61 61 64 33 39 43 50 91 63 95
31 21 12 19 54 54 50 56 66 47 46 44 40 37 34 28 29 32 39 51 52 56 61 60 62 67 69 74 71 67 68 66 65 49 46 48 45 32 62 77 12 90 91 94 96
27 22 29 57 54 49 52 55 58 54 44 42 30 30 27 24 27 30 29 34 39 55 53 54 58 61 62 59 59 58 47 43 40 41 42 50 54 58 68 77 81 86 80 44 87
32 28 56 53 52 56 54 55 58 52 40 34 30 29 25 24 25 27 29 30 31 33 36 46 47 46 44 40 36 34 36 40 36 38 42 47 53 62 71 33 26 86 64 97 71
41 41 50 36 47 52 55 49 55 51 40 29 24 21 21 27 29 29 28 28 28 28 31 32 31 33 29 27 27 27 30 33 37 41 45 50 56 65 68 74 82 55 55 74 79
24 39 25 34 38 40 41 43 49 46 38 31 20 18 16 29 26 24 26 27 28 28 27 29 29 23 22 23 26 29 31 35 40 44 49 52 36 50 58 65 51 12 54 62 9
23 25 23 37 24 32 41 41 41 36 28 23 22 23 26 25 24 26 27 26 26 26 26 24 22 21 24 27 29 31 36 36 28 34 32 41 45 48 32 36 44 48 48 42 21
33 20 30 25 35 37 33 27 23 20 20 18 21 28 27 27 26 24 24 24 24 23 24 23 22 25 22 22 22 22 22 28 27 36 36 45 34 47 46 38 38 42 49 33 46
31 19 15 19 24 15 11 12 12 11 16 22 28 27 27 27 26 25 23 23 21 22 21 25 28 26 25 21 23 21 21 28 29 25 22 33 36 40 38 42 36 38 48 41 32
28 13 17 9 16 5 13 8 13 12 17 26 28 28 27 26 22 21 21 20 33 31 31 29 25 23 23 24 22 25 21 27 15 19 25 33 37 40 36 32 32 32 37 44 35
33 28 1 3 4 3 8 5 7 9 27 30 29 27 25 22 22 21 31 32 31 28 25 24 22 23 24 17 18 22 23 18 16 21 27 26 34 34 17 38 30 28 30 23 41
Wind_Direction
318 301 293 281 270 254 250 241 226 227 229 229 228 225 235 224 229 243 240 237 230 231 233 233 235 235 237 237 239 239 237 238 239 239 243 244 244 244 243 249 246 246 238 250 250
318 302 288 283 271 263 253 243 235 224 226 228 228 227 226 226 230 242 228 231 235 231 232 232 233 235 235 237 239 239 238 239 239 240 243 246 247 242 242 246 249 246 248 249 246
319 305 289 278 274 263 254 244 239 236 223 228 227 226 227 226 226 224 228 230 227 230 230 232 234 235 235 237 239 239 240 240 242 242 244 246 243 244 244 245 245 247 248 247 248
317 306 300 273 264 261 252 245 237 235 226 223 225 227 226 227 224 239 227 231 238 235 229 232 233 237 236 238 238 240 241 244 244 243 242 245 244 244 245 245 249 249 249 251 250
313 301 290 271 272 251 249 241 236 234 231 223 224 226 226 224 226 227 225 227 230 235 230 230 231 234 234 235 238 240 243 243 244 245 244 244 246 244 245 245 248 251 251 252 254
314 300 291 287 269 242 283 239 233 229 231 226 221 223 223 224 223 226 227 227 234 228 228 234 229 230 234 236 235 237 241 243 243 244 243 245 246 247 247 247 249 252 253 254 255
301 294 284 269 268 248 244 236 230 228 227 224 221 219 222 222 223 225 226 225 227 228 229 227 237 230 240 234 238 238 238 241 245 244 248 249 251 245 249 249 250 251 252 254 254
309 305 302 298 257 240 233 229 231 225 224 225 224 220 221 222 223 222 224 225 226 226 228 231 234 231 232 234 236 239 238 239 243 246 246 249 253 251 250 253 252 253 255 256 258
316 312 303 286 261 241 228 226 227 221 222 220 219 219 220 221 223 223 224 226 227 229 229 230 230 241 235 237 235 236 238 241 242 244 248 250 250 253 254 254 255 256 255 257 259
337 333 325 338 259 241 229 214 224 223 219 219 218 214 215 220 222 221 223 226 227 227 233 232 231 232 234 232 243 236 237 241 243 245 246 248 249 253 255 256 259 259 259 260 264
343 340 340 336 339 291 255 209 213 217 220 218 216 212 216 216 222 220 223 226 228 229 232 233 232 232 232 234 234 237 239 240 242 244 246 248 249 251 254 257 259 261 262 261 260
352 345 336 340 350 335 240 190 204 214 217 212 210 210 210 218 217 218 221 225 226 226 228 231 233 231 234 236 235 236 237 238 239 246 245 248 248 252 255 258 259 260 261 260 262
347 342 339 342 357 344 282 181 185 208 209 210 206 212 206 214 219 218 221 223 226 225 228 229 233 234 233 237 239 240 241 242 242 241 244 248 251 254 256 257 259 261 262 263 264
339 335 325 344 323 340 178 172 179 202 205 203 202 209 207 209 219 220 221 224 224 228 226 228 232 234 234 236 239 241 241 243 246 245 244 244 247 254 257 259 261 262 263 264 263
334 336 325 296 80 307 166 162 176 196 199 198 199 204 207 207 212 216 218 223 224 228 225 227 231 231 233 235 240 242 247 247 252 250 251 248 247 252 255 256 256 258 260 261 261
337 330 323 274 160 186 156 165 173 196 194 195 198 199 199 204 208 214 215 216 219 226 230 231 230 231 234 237 241 245 245 250 253 254 255 254 256 251 257 258 251 254 258 260 262
347 337 326 152 150 147 149 166 170 191 187 189 192 199 200 201 198 210 214 216 216 221 223 227 229 235 234 238 241 245 251 254 255 260 260 256 255 256 243 249 252 254 258 259 256
356 360 54 110 133 126 139 163 180 179 184 188 194 197 201 198 202 207 213 220 219 220 222 225 228 230 232 236 241 249 251 255 257 255 255 259 258 197 256 257 269 256 260 261 263
22 55 101 123 146 142 155 167 171 180 180 186 187 195 198 201 207 210 197 202 210 222 223 228 230 231 236 240 246 249 249 246 249 253 257 259 259 258 258 260 262 261 260 258 263
82 52 118 130 138 148 159 171 167 176 182 182 181 190 197 203 197 185 186 193 202 211 216 226 228 234 232 229 230 232 238 248 255 257 259 260 261 263 263 255 254 265 263 267 265
119 113 127 138 147 159 164 164 162 175 182 169 177 197 207 189 183 185 181 182 184 190 197 204 209 213 213 219 229 238 244 249 253 257 257 258 264 264 267 270 271 269 282 277 276
69 124 45 144 151 155 154 147 154 172 180 183 180 197 213 180 182 173 169 175 179 185 190 200 209 211 214 225 233 240 246 252 255 258 264 269 271 275 279 278 295 270 278 278 255
105 132 124 147 138 137 128 137 154 164 167 174 185 181 172 168 167 172 175 179 187 196 204 209 212 217 225 227 237 242 248 253 256 265 274 272 277 281 310 320 300 298 301 302 273
28 144 103 69 116 123 131 135 141 151 170 174 179 172 169 171 174 174 183 186 196 200 205 210 215 221 207 197 217 224 237 249 259 267 272 278 290 291 304 325 311 331 330 302 287
40 66 84 99 113 85 73 81 117 138 172 178 171 165 168 176 178 182 185 190 193 201 207 173 173 178 190 206 219 230 235 257 258 265 280 287 304 307 326 339 340 348 349 353 334
23 56 30 37 10 53 4 141 148 163 172 164 160 168 176 179 179 178 183 187 171 171 162 171 181 196 212 224 233 246 223 256 263 274 280 290 314 316 340 336 353 6 12 14 35
14 25 55 203 349 293 273 225 183 168 165 168 174 176 179 178 179 179 178 170 169 168 178 189 218 227 231 222 233 221 257 258 263 277 297 319 315 322 303 352 356 22 37 33 45